Location: Altavilla Irpina
(41.0000°N, 14.7833°E)
Time: 20:43:24
(UTC+00:00)

Cosmos 1821 Rocket - Pass Details

Date: 19 May 2025
Orbit: 943 x 1004 km, 82.9° (Epoch: 15 June)

Event Time Altitude Azimuth Distance (km) Brightness Sun altitude
Rises 20:30:15 0° 358° (N) 3,632 7.9 -20.1°
Reaches altitude 10° 20:32:52 10° 4° (N) 2,677 7.0 -20.4°
Maximum altitude 20:38:44 48° 78° (ENE) 1,225 4.3 -21.1°
Enters shadow 20:40:29 38° 121° (ESE) 1,415 4.4 -21.3°
